| time (UTC) | temp F | wind direction | speed MPH | gust MPH | rain 1hr in | rain 24hr in | rain mn in | humidity % | barometer mb |
| 20260831200302 | 74 | 244 | 0.0 | 0.0 | 0.00 | 0.00 | 0.00 | 31 | 1023.7 |
| 20260831195757 | 74 | 45 | 1.0 | 2.0 | 0.00 | 0.00 | 0.00 | 32 | 1023.6 |
| 20260831195253 | 73 | 201 | 1.0 | 2.0 | 0.00 | 0.00 | 0.00 | 31 | 1023.6 |
| 20260831194748 | 73 | 183 | 2.0 | 2.0 | 0.00 | 0.00 | 0.00 | 32 | 1024.0 |
| 20260831194244 | 74 | 187 | 0.0 | 1.0 | 0.00 | 0.00 | 0.00 | 33 | 1023.7 |
| 20260831193743 | 72 | 278 | 1.0 | 2.0 | 0.00 | 0.00 | 0.00 | 30 | 1024.0 |
| 20260831193238 | 71 | 333 | 3.0 | 3.0 | 0.00 | 0.00 | 0.00 | 33 | 1024.0 |
| 20260831192733 | 71 | 236 | 0.0 | 1.0 | 0.00 | 0.00 | 0.00 | 31 | 1024.2 |
| 20260831192228 | 72 | 91 | 2.0 | 3.0 | 0.00 | 0.00 | 0.00 | 32 | 1024.3 |
| 20260831191724 | 71 | 205 | 0.0 | 1.0 | 0.00 | 0.00 | 0.00 | 32 | 1024.3 |
| 20260831191220 | 70 | 134 | 3.0 | 3.0 | 0.00 | 0.00 | 0.00 | 34 | 1024.2 |
| 20260831190715 | 69 | 111 | 2.0 | 2.0 | 0.00 | 0.00 | 0.00 | 32 | 1024.8 |
| 20260831190215 | 69 | 210 | 2.0 | 2.0 | 0.00 | 0.00 | 0.00 | 31 | 1024.7 |
| 20260831185710 | 69 | 214 | 2.0 | 3.0 | 0.00 | 0.00 | 0.00 | 36 | 1024.7 |
| 20260831185205 | 70 | 222 | 1.0 | 2.0 | 0.00 | 0.00 | 0.00 | 34 | 1024.9 |
| 20260831184704 | 69 | 203 | 3.0 | 3.0 | 0.00 | 0.00 | 0.00 | 33 | 1025.4 |
| 20260831184201 | 69 | 104 | 0.0 | 1.0 | 0.00 | 0.00 | 0.00 | 35 | 1025.0 |
| 20260831183700 | 68 | 245 | 0.0 | 0.0 | 0.00 | 0.00 | 0.00 | 34 | 1025.2 |
| 20260831183200 | 68 | 218 | 1.0 | 2.0 | 0.00 | 0.00 | 0.00 | 37 | 1025.3 |
| 20260831182659 | 67 | 196 | 1.0 | 2.0 | 0.00 | 0.00 | 0.00 | 38 | 1025.4 |
| 20260831182155 | 67 | 283 | 0.0 | 1.0 | 0.00 | 0.00 | 0.00 | 40 | 1025.4 |
| 20260831181649 | 65 | 273 | 1.0 | 1.0 | 0.00 | 0.00 | 0.00 | 40 | 1025.5 |
| 20260831181149 | 66 | 75 | 1.0 | 2.0 | 0.00 | 0.00 | 0.00 | 40 | 1025.8 |
| 20260831180644 | 65 | 159 | 2.0 | 2.0 | 0.00 | 0.00 | 0.00 | 40 | 1025.9 |
| 20260831180140 | 65 | 104 | 1.0 | 1.0 | 0.00 | 0.00 | 0.00 | 41 | 1025.7 |
| 20260831175634 | 65 | 254 | 2.0 | 2.0 | 0.00 | 0.00 | 0.00 | 42 | 1026.1 |
| 20260831175131 | 64 | 235 | 1.0 | 1.0 | 0.00 | 0.00 | 0.00 | 42 | 1026.2 |
| 20260831174631 | 63 | 214 | 1.0 | 2.0 | 0.00 | 0.00 | 0.00 | 43 | 1026.4 |
| 20260831174126 | 64 | 118 | 1.0 | 2.0 | 0.00 | 0.00 | 0.00 | 43 | 1026.4 |
| 20260831173624 | 64 | 183 | 1.0 | 2.0 | 0.00 | 0.00 | 0.00 | 43 | 1026.4 |
| 20260831173121 | 62 | 37 | 0.0 | 0.0 | 0.00 | 0.00 | 0.00 | 48 | 1026.3 |
| 20260831172620 | 62 | 245 | 0.0 | 0.0 | 0.00 | 0.00 | 0.00 | 48 | 1026.8 |
| 20260831172120 | 61 | 207 | 1.0 | 1.0 | 0.00 | 0.00 | 0.00 | 49 | 1026.3 |
| 20260831171616 | 60 | 216 | 2.0 | 2.0 | 0.00 | 0.00 | 0.00 | 47 | 1026.6 |
| 20260831171113 | 60 | 232 | 2.0 | 2.0 | 0.00 | 0.00 | 0.00 | 48 | 1026.6 |
| 20260831170609 | 60 | 251 | 0.0 | 1.0 | 0.00 | 0.00 | 0.00 | 50 | 1026.9 |
| 20260831170106 | 59 | 245 | 0.0 | 0.0 | 0.00 | 0.00 | 0.00 | 50 | 1026.9 |
| 20260831165601 | 59 | 192 | 4.0 | 5.0 | 0.00 | 0.00 | 0.00 | 51 | 1026.9 |
| 20260831165058 | 58 | 235 | 0.0 | 0.0 | 0.00 | 0.00 | 0.00 | 51 | 1027.1 |
| 20260831164553 | 58 | 272 | 3.0 | 3.0 | 0.00 | 0.00 | 0.00 | 51 | 1027.2 |
| 20260831164049 | 57 | 294 | 0.0 | 0.0 | 0.00 | 0.00 | 0.00 | 55 | 1026.9 |
| 20260831163543 | 57 | 244 | 1.0 | 1.0 | 0.00 | 0.00 | 0.00 | 55 | 1027.4 |
| 20260831163039 | 58 | 243 | 1.0 | 1.0 | 0.00 | 0.00 | 0.00 | 55 | 1027.2 |
| 20260831162538 | 57 | 6 | 0.0 | 1.0 | 0.00 | 0.00 | 0.00 | 55 | 1027.3 |
| 20260831162036 | 56 | 199 | 0.0 | 0.0 | 0.00 | 0.00 | 0.00 | 55 | 1027.5 |
| 20260831161532 | 55 | 241 | 0.0 | 1.0 | 0.00 | 0.00 | 0.00 | 56 | 1027.3 |
| 20260831161029 | 55 | 243 | 0.0 | 0.0 | 0.00 | 0.00 | 0.00 | 60 | 1027.5 |
| 20260831160527 | 54 | 240 | 0.0 | 0.0 | 0.00 | 0.00 | 0.00 | 64 | 1027.4 |
| 20260831160024 | 54 | 182 | 0.0 | 0.0 | 0.00 | 0.00 | 0.00 | 65 | 1027.4 |
| 20260831155518 | 53 | 241 | 0.0 | 1.0 | 0.00 | 0.00 | 0.00 | 66 | 1027.6 |
| 20260831155013 | 52 | 197 | 1.0 | 1.0 | 0.00 | 0.00 | 0.00 | 66 | 1027.8 |
| 20260831154509 | 52 | 235 | 1.0 | 1.0 | 0.00 | 0.00 | 0.00 | 65 | 1027.8 |
| 20260831154008 | 52 | 212 | 0.0 | 0.0 | 0.00 | 0.00 | 0.00 | 68 | 1027.9 |
| 20260831153503 | 51 | 226 | 0.0 | 0.0 | 0.00 | 0.00 | 0.00 | 67 | 1027.9 |
| 20260831153000 | 51 | 195 | 0.0 | 0.0 | 0.00 | 0.00 | 0.00 | 70 | 1027.8 |
| 20260831152455 | 49 | 229 | 0.0 | 0.0 | 0.00 | 0.00 | 0.00 | 74 | 1027.8 |
| 20260831151950 | 47 | 215 | 0.0 | 0.0 | 0.00 | 0.00 | 0.00 | 79 | 1028.0 |
| 20260831151449 | 45 | 238 | 0.0 | 0.0 | 0.00 | 0.00 | 0.00 | 82 | 1028.1 |
| 20260831150944 | 45 | 259 | 1.0 | 1.0 | 0.00 | 0.00 | 0.00 | 87 | 1027.9 |
| 20260831150440 | 44 | 268 | 1.0 | 1.0 | 0.00 | 0.00 | 0.00 | 90 | 1028.0 |
| 20260831145939 | 44 | 206 | 1.0 | 2.0 | 0.00 | 0.00 | 0.00 | 92 | 1028.1 |
| 20260831145435 | 44 | 237 | 0.0 | 0.0 | 0.00 | 0.00 | 0.00 | 93 | 1028.1 |
| 20260831144931 | 42 | 216 | 0.0 | 0.0 | 0.00 | 0.00 | 0.00 | 94 | 1027.9 |
| 20260831144426 | 42 | 196 | 1.0 | 2.0 | 0.00 | 0.00 | 0.00 | 94 | 1028.1 |
| 20260831143921 | 42 | 208 | 1.0 | 1.0 | 0.00 | 0.00 | 0.00 | 94 | 1028.0 |
| 20260831143416 | 42 | 234 | 0.0 | 0.0 | 0.00 | 0.00 | 0.00 | 94 | 1028.0 |
| 20260831142912 | 42 | 241 | 0.0 | 0.0 | 0.00 | 0.00 | 0.00 | 94 | 1027.8 |
| 20260831142408 | 41 | 234 | 0.0 | 0.0 | 0.00 | 0.00 | 0.00 | 94 | 1027.8 |
| 20260831141902 | 40 | 228 | 0.0 | 0.0 | 0.00 | 0.00 | 0.00 | 94 | 1027.8 |
| 20260831141356 | 40 | 249 | 0.0 | 0.0 | 0.00 | 0.00 | 0.00 | 94 | 1027.6 |
| 20260831140851 | 39 | 249 | 0.0 | 0.0 | 0.00 | 0.00 | 0.00 | 94 | 1027.9 |
| 20260831140345 | 39 | 249 | 0.0 | 0.0 | 0.00 | 0.00 | 0.00 | 94 | 1027.8 |
| 20260831135844 | 38 | 249 | 0.0 | 0.0 | 0.00 | 0.00 | 0.00 | 94 | 1027.8 |
| 20260831135334 | 37 | 249 | 0.0 | 0.0 | 0.00 | 0.00 | 0.00 | 94 | 1027.8 |
| 20260831134829 | 37 | 249 | 0.0 | 0.0 | 0.00 | 0.00 | 0.00 | 94 | 1027.6 |
| 20260831134326 | 37 | 249 | 0.0 | 0.0 | 0.00 | 0.00 | 0.00 | 94 | 1027.6 |
| 20260831133824 | 36 | 250 | 0.0 | 0.0 | 0.00 | 0.00 | 0.00 | 94 | 1027.5 |
| 20260831133324 | 36 | 250 | 0.0 | 0.0 | 0.00 | 0.00 | 0.00 | 93 | 1027.5 |
| 20260831132820 | 36 | 249 | 0.0 | 0.0 | 0.00 | 0.00 | 0.00 | 93 | 1027.5 |
| 20260831132315 | 36 | 249 | 0.0 | 0.0 | 0.00 | 0.00 | 0.00 | 93 | 1027.5 |
| 20260831131809 | 35 | 253 | 0.0 | 0.0 | 0.00 | 0.00 | 0.00 | 93 | 1027.4 |
| 20260831131305 | 36 | 259 | 0.0 | 0.0 | 0.00 | 0.00 | 0.00 | 93 | 1027.4 |
| 20260831130759 | 36 | 249 | 0.0 | 0.0 | 0.00 | 0.00 | 0.00 | 93 | 1027.2 |
| 20260831130255 | 36 | 246 | 0.0 | 0.0 | 0.00 | 0.00 | 0.00 | 93 | 1027.5 |
| 20260831125754 | 36 | 238 | 0.0 | 0.0 | 0.00 | 0.00 | 0.00 | 93 | 1027.4 |
| 20260831125250 | 36 | 238 | 0.0 | 0.0 | 0.00 | 0.00 | 0.00 | 93 | 1027.2 |
| 20260831124744 | 36 | 238 | 0.0 | 0.0 | 0.00 | 0.00 | 0.00 | 93 | 1027.1 |
| 20260831124241 | 36 | 237 | 0.0 | 0.0 | 0.00 | 0.00 | 0.00 | 93 | 1027.0 |
| 20260831123741 | 36 | 253 | 0.0 | 0.0 | 0.00 | 0.00 | 0.00 | 93 | 1027.2 |
| 20260831123240 | 36 | 257 | 0.0 | 0.0 | 0.00 | 0.00 | 0.00 | 93 | 1027.2 |
| 20260831122739 | 36 | 268 | 0.0 | 0.0 | 0.00 | 0.00 | 0.00 | 93 | 1027.2 |
| 20260831122235 | 37 | 248 | 0.0 | 0.0 | 0.00 | 0.00 | 0.00 | 93 | 1027.2 |
| 20260831121734 | 37 | 247 | 0.0 | 0.0 | 0.00 | 0.00 | 0.00 | 93 | 1027.3 |
| 20260831121231 | 37 | 254 | 0.0 | 0.0 | 0.00 | 0.00 | 0.00 | 93 | 1027.2 |
| 20260831120726 | 37 | 254 | 0.0 | 0.0 | 0.00 | 0.00 | 0.00 | 93 | 1027.0 |
| 20260831120221 | 37 | 254 | 0.0 | 0.0 | 0.00 | 0.00 | 0.00 | 93 | 1026.9 |
| 20260831115717 | 37 | 264 | 0.0 | 0.0 | 0.00 | 0.00 | 0.00 | 93 | 1027.0 |
| 20260831115213 | 38 | 235 | 0.0 | 0.0 | 0.00 | 0.00 | 0.00 | 93 | 1026.9 |
| 20260831114712 | 37 | 228 | 0.0 | 0.0 | 0.00 | 0.00 | 0.00 | 93 | 1027.0 |
| 20260831114211 | 37 | 234 | 0.0 | 0.0 | 0.00 | 0.00 | 0.00 | 93 | 1026.6 |
| 20260831113707 | 37 | 244 | 0.0 | 0.0 | 0.00 | 0.00 | 0.00 | 93 | 1026.8 |
| 20260831113201 | 37 | 250 | 0.0 | 0.0 | 0.00 | 0.00 | 0.00 | 92 | 1026.8 |
| 20260831112700 | 36 | 250 | 0.0 | 0.0 | 0.00 | 0.00 | 0.00 | 92 | 1026.8 |
| 20260831112156 | 36 | 250 | 0.0 | 0.0 | 0.00 | 0.00 | 0.00 | 92 | 1026.9 |
| 20260831111651 | 37 | 243 | 0.0 | 1.0 | 0.00 | 0.00 | 0.00 | 92 | 1026.8 |
| 20260831111148 | 38 | 259 | 0.0 | 0.0 | 0.00 | 0.00 | 0.00 | 92 | 1027.1 |
| 20260831110643 | 38 | 240 | 0.0 | 0.0 | 0.00 | 0.00 | 0.00 | 92 | 1026.9 |
| 20260831110138 | 37 | 238 | 0.0 | 0.0 | 0.00 | 0.00 | 0.00 | 92 | 1026.8 |
| 20260831105637 | 38 | 254 | 0.0 | 0.0 | 0.00 | 0.00 | 0.00 | 92 | 1026.6 |
| 20260831105132 | 38 | 254 | 0.0 | 0.0 | 0.00 | 0.00 | 0.00 | 92 | 1026.9 |
| 20260831104627 | 38 | 267 | 0.0 | 0.0 | 0.00 | 0.00 | 0.00 | 92 | 1026.8 |
| 20260831104124 | 38 | 235 | 0.0 | 0.0 | 0.00 | 0.00 | 0.00 | 92 | 1026.6 |
| 20260831103619 | 39 | 235 | 0.0 | 0.0 | 0.00 | 0.00 | 0.00 | 92 | 1026.5 |
| 20260831103115 | 39 | 225 | 0.0 | 0.0 | 0.00 | 0.00 | 0.00 | 92 | 1026.5 |
| 20260831102614 | 38 | 227 | 0.0 | 0.0 | 0.00 | 0.00 | 0.00 | 92 | 1026.6 |
| 20260831102109 | 38 | 239 | 0.0 | 0.0 | 0.00 | 0.00 | 0.00 | 92 | 1026.5 |
| 20260831101609 | 37 | 253 | 0.0 | 0.0 | 0.00 | 0.00 | 0.00 | 92 | 1026.3 |
| 20260831101106 | 38 | 235 | 1.0 | 1.0 | 0.00 | 0.00 | 0.00 | 92 | 1026.5 |
| 20260831100601 | 38 | 256 | 0.0 | 0.0 | 0.00 | 0.00 | 0.00 | 91 | 1026.4 |
| 20260831100057 | 38 | 257 | 0.0 | 0.0 | 0.00 | 0.00 | 0.00 | 91 | 1026.4 |
| 20260831095555 | 38 | 253 | 0.0 | 0.0 | 0.00 | 0.00 | 0.00 | 91 | 1026.3 |
| 20260831095050 | 39 | 256 | 0.0 | 0.0 | 0.00 | 0.00 | 0.00 | 91 | 1026.5 |
| 20260831094546 | 39 | 250 | 0.0 | 0.0 | 0.00 | 0.00 | 0.00 | 91 | 1026.1 |
| 20260831094042 | 40 | 259 | 0.0 | 0.0 | 0.00 | 0.00 | 0.00 | 91 | 1026.4 |
| 20260831093537 | 40 | 249 | 0.0 | 0.0 | 0.00 | 0.00 | 0.00 | 91 | 1026.2 |
| 20260831093033 | 40 | 248 | 0.0 | 0.0 | 0.00 | 0.00 | 0.00 | 91 | 1026.5 |
| 20260831092529 | 39 | 248 | 0.0 | 0.0 | 0.00 | 0.00 | 0.00 | 91 | 1026.3 |
| 20260831092024 | 39 | 248 | 0.0 | 0.0 | 0.00 | 0.00 | 0.00 | 91 | 1026.4 |
| 20260831091519 | 40 | 252 | 0.0 | 0.0 | 0.00 | 0.00 | 0.00 | 91 | 1026.5 |
| 20260831091014 | 40 | 248 | 0.0 | 0.0 | 0.00 | 0.00 | 0.00 | 91 | 1026.4 |
| 20260831090510 | 40 | 250 | 0.0 | 0.0 | 0.00 | 0.00 | 0.00 | 90 | 1026.4 |
| 20260831090006 | 40 | 246 | 0.0 | 0.0 | 0.00 | 0.00 | 0.00 | 90 | 1026.2 |
| 20260831085501 | 40 | 247 | 0.0 | 0.0 | 0.00 | 0.00 | 0.00 | 90 | 1026.3 |
| 20260831085000 | 40 | 257 | 0.0 | 0.0 | 0.00 | 0.00 | 0.00 | 90 | 1026.1 |
| 20260831084457 | 40 | 266 | 0.0 | 0.0 | 0.00 | 0.00 | 0.00 | 90 | 1026.3 |
| 20260831083953 | 41 | 254 | 0.0 | 0.0 | 0.00 | 0.00 | 0.00 | 90 | 1026.2 |
| 20260831083448 | 41 | 235 | 0.0 | 0.0 | 0.00 | 0.00 | 0.00 | 90 | 1026.1 |
| 20260831082948 | 41 | 235 | 0.0 | 0.0 | 0.00 | 0.00 | 0.00 | 89 | 1026.2 |
| 20260831082447 | 40 | 243 | 0.0 | 0.0 | 0.00 | 0.00 | 0.00 | 89 | 1026.2 |
| 20260831081942 | 41 | 244 | 0.0 | 0.0 | 0.00 | 0.00 | 0.00 | 89 | 1026.0 |
| 20260831081438 | 42 | 231 | 0.0 | 0.0 | 0.00 | 0.00 | 0.00 | 89 | 1026.2 |
| 20260831080934 | 42 | 225 | 0.0 | 0.0 | 0.00 | 0.00 | 0.00 | 89 | 1026.0 |
| 20260831080434 | 41 | 236 | 0.0 | 0.0 | 0.00 | 0.00 | 0.00 | 88 | 1025.9 |
| 20260831075930 | 42 | 232 | 0.0 | 1.0 | 0.00 | 0.00 | 0.00 | 88 | 1026.1 |
| 20260831075426 | 42 | 239 | 0.0 | 0.0 | 0.00 | 0.00 | 0.00 | 88 | 1025.9 |
| 20260831074921 | 41 | 239 | 0.0 | 0.0 | 0.00 | 0.00 | 0.00 | 88 | 1025.9 |
| 20260831074415 | 42 | 245 | 0.0 | 0.0 | 0.00 | 0.00 | 0.00 | 88 | 1026.1 |
| 20260831073909 | 42 | 228 | 0.0 | 0.0 | 0.00 | 0.00 | 0.00 | 88 | 1026.1 |
| 20260831073409 | 42 | 228 | 0.0 | 0.0 | 0.00 | 0.00 | 0.00 | 88 | 1025.9 |
| 20260831072903 | 42 | 211 | 1.0 | 1.0 | 0.00 | 0.00 | 0.00 | 87 | 1026.1 |
| 20260831072359 | 43 | 240 | 0.0 | 0.0 | 0.00 | 0.00 | 0.00 | 86 | 1025.9 |
| 20260831071855 | 44 | 250 | 0.0 | 0.0 | 0.00 | 0.00 | 0.00 | 86 | 1026.1 |
| 20260831071354 | 44 | 134 | 1.0 | 1.0 | 0.00 | 0.00 | 0.00 | 86 | 1025.9 |
| 20260831070849 | 43 | 206 | 3.0 | 3.0 | 0.00 | 0.00 | 0.00 | 85 | 1025.5 |
| 20260831070348 | 43 | 253 | 0.0 | 0.0 | 0.00 | 0.00 | 0.00 | 85 | 1025.9 |
| 20260831065848 | 43 | 253 | 0.0 | 0.0 | 0.00 | 0.00 | 0.00 | 85 | 1025.8 |
| 20260831065345 | 44 | 278 | 0.0 | 0.0 | 0.00 | 0.00 | 0.00 | 84 | 1025.5 |
| 20260831064841 | 43 | 243 | 0.0 | 0.0 | 0.00 | 0.00 | 0.00 | 85 | 1025.9 |
| 20260831064336 | 44 | 244 | 0.0 | 0.0 | 0.00 | 0.00 | 0.00 | 84 | 1025.8 |
| 20260831063832 | 44 | 243 | 0.0 | 0.0 | 0.00 | 0.00 | 0.00 | 84 | 1025.9 |
| 20260831063327 | 46 | 246 | 1.0 | 1.0 | 0.00 | 0.00 | 0.00 | 84 | 1025.8 |
| 20260831062826 | 46 | 229 | 0.0 | 0.0 | 0.00 | 0.00 | 0.00 | 83 | 1025.8 |
| 20260831062322 | 46 | 243 | 0.0 | 0.0 | 0.00 | 0.00 | 0.00 | 81 | 1025.8 |
| 20260831061821 | 46 | 179 | 1.0 | 1.0 | 0.00 | 0.00 | 0.00 | 81 | 1026.0 |
| 20260831061320 | 46 | 222 | 1.0 | 1.0 | 0.00 | 0.00 | 0.00 | 79 | 1025.9 |
| 20260831060816 | 47 | 244 | 0.0 | 0.0 | 0.00 | 0.00 | 0.00 | 76 | 1025.9 |
| 20260831060316 | 46 | 234 | 0.0 | 0.0 | 0.00 | 0.00 | 0.00 | 78 | 1025.8 |
| 20260831055816 | 45 | 213 | 0.0 | 1.0 | 0.00 | 0.02 | 0.02 | 81 | 1026.0 |
| 20260831055311 | 45 | 239 | 0.0 | 0.0 | 0.00 | 0.02 | 0.02 | 81 | 1025.8 |
| 20260831054806 | 46 | 229 | 1.0 | 1.0 | 0.00 | 0.02 | 0.02 | 80 | 1025.4 |
| 20260831054301 | 46 | 236 | 0.0 | 0.0 | 0.00 | 0.02 | 0.02 | 80 | 1025.8 |
| 20260831053800 | 46 | 237 | 0.0 | 1.0 | 0.00 | 0.02 | 0.02 | 79 | 1025.5 |
| 20260831053259 | 48 | 216 | 1.0 | 2.0 | 0.00 | 0.02 | 0.02 | 76 | 1025.7 |
| 20260831052753 | 49 | 245 | 0.0 | 0.0 | 0.00 | 0.02 | 0.02 | 69 | 1025.5 |
| 20260831052253 | 49 | 228 | 0.0 | 0.0 | 0.00 | 0.02 | 0.02 | 73 | 1025.3 |
| 20260831051751 | 49 | 219 | 0.0 | 0.0 | 0.00 | 0.02 | 0.02 | 73 | 1025.3 |
| 20260831051250 | 48 | 202 | 1.0 | 1.0 | 0.00 | 0.02 | 0.02 | 77 | 1025.3 |
| 20260831050744 | 48 | 222 | 1.0 | 1.0 | 0.00 | 0.02 | 0.02 | 75 | 1025.2 |
| 20260831050244 | 48 | 164 | 2.0 | 2.0 | 0.00 | 0.02 | 0.02 | 77 | 1025.3 |
| 20260831045738 | 48 | 219 | 1.0 | 1.0 | 0.00 | 0.02 | 0.02 | 76 | 1025.3 |
| 20260831045233 | 48 | 187 | 1.0 | 1.0 | 0.00 | 0.02 | 0.02 | 76 | 1025.2 |
| 20260831044728 | 48 | 217 | 0.0 | 0.0 | 0.00 | 0.02 | 0.02 | 76 | 1025.4 |
| 20260831044223 | 48 | 254 | 0.0 | 0.0 | 0.00 | 0.02 | 0.02 | 76 | 1025.3 |
| 20260831043719 | 48 | 243 | 0.0 | 0.0 | 0.00 | 0.02 | 0.02 | 76 | 1025.0 |
| 20260831043214 | 48 | 235 | 0.0 | 0.0 | 0.00 | 0.02 | 0.02 | 76 | 1024.9 |
| 20260831042713 | 49 | 217 | 0.0 | 0.0 | 0.00 | 0.02 | 0.02 | 75 | 1025.2 |
| 20260831042208 | 50 | 221 | 0.0 | 0.0 | 0.00 | 0.02 | 0.02 | 72 | 1025.2 |
| 20260831041703 | 53 | 263 | 2.0 | 2.0 | 0.00 | 0.02 | 0.02 | 67 | 1025.1 |
| 20260831041202 | 51 | 61 | 2.0 | 2.0 | 0.00 | 0.02 | 0.02 | 74 | 1025.1 |
| 20260831040657 | 49 | 93 | 3.0 | 3.0 | 0.00 | 0.02 | 0.02 | 75 | 1025.0 |
| 20260831040156 | 49 | 242 | 0.0 | 0.0 | 0.00 | 0.02 | 0.02 | 71 | 1024.8 |
| 20260831035655 | 49 | 232 | 0.0 | 0.0 | 0.00 | 0.02 | 0.02 | 74 | 1024.8 |
| 20260831035150 | 49 | 242 | 0.0 | 0.0 | 0.00 | 0.02 | 0.02 | 73 | 1024.7 |
| 20260831034648 | 50 | 248 | 0.0 | 0.0 | 0.00 | 0.02 | 0.02 | 73 | 1024.9 |
| 20260831034144 | 51 | 302 | 0.0 | 0.0 | 0.00 | 0.02 | 0.02 | 71 | 1024.7 |
| 20260831033640 | 53 | 187 | 2.0 | 2.0 | 0.00 | 0.02 | 0.02 | 66 | 1024.7 |
| 20260831033134 | 52 | 258 | 0.0 | 0.0 | 0.00 | 0.02 | 0.02 | 67 | 1024.5 |
| 20260831032629 | 52 | 293 | 1.0 | 1.0 | 0.00 | 0.02 | 0.02 | 68 | 1024.7 |
| 20260831032125 | 52 | 257 | 0.0 | 1.0 | 0.00 | 0.02 | 0.02 | 66 | 1024.5 |
| 20260831031624 | 53 | 224 | 0.0 | 1.0 | 0.00 | 0.02 | 0.02 | 67 | 1024.4 |
| 20260831031124 | 55 | 277 | 0.0 | 1.0 | 0.00 | 0.02 | 0.02 | 61 | 1024.3 |
| 20260831030622 | 54 | 240 | 0.0 | 0.0 | 0.00 | 0.02 | 0.02 | 63 | 1024.3 |
| 20260831030122 | 55 | 238 | 0.0 | 0.0 | 0.00 | 0.02 | 0.02 | 60 | 1024.2 |
| 20260831025620 | 55 | 185 | 0.0 | 1.0 | 0.00 | 0.02 | 0.02 | 53 | 1024.1 |
| 20260831025115 | 56 | 235 | 0.0 | 0.0 | 0.00 | 0.02 | 0.02 | 57 | 1024.1 |
| 20260831024612 | 56 | 168 | 2.0 | 2.0 | 0.00 | 0.02 | 0.02 | 57 | 1024.0 |
| 20260831024110 | 57 | 234 | 0.0 | 0.0 | 0.00 | 0.02 | 0.02 | 53 | 1023.8 |
| 20260831023609 | 59 | 277 | 2.0 | 2.0 | 0.00 | 0.02 | 0.02 | 50 | 1024.0 |
| 20260831023108 | 60 | 297 | 0.0 | 1.0 | 0.00 | 0.02 | 0.02 | 46 | 1023.6 |
| 20260831022603 | 60 | 250 | 0.0 | 0.0 | 0.00 | 0.02 | 0.02 | 44 | 1023.8 |
| 20260831022058 | 61 | 256 | 0.0 | 0.0 | 0.00 | 0.02 | 0.02 | 44 | 1023.7 |
| 20260831021556 | 62 | 257 | 0.0 | 1.0 | 0.00 | 0.02 | 0.02 | 42 | 1023.7 |
| 20260831021052 | 63 | 224 | 0.0 | 0.0 | 0.00 | 0.02 | 0.02 | 41 | 1023.7 |
| 20260831020548 | 64 | 260 | 1.0 | 1.0 | 0.00 | 0.02 | 0.02 | 38 | 1023.7 |
| 20260831020037 | 63 | 256 | 1.0 | 1.0 | 0.00 | 0.02 | 0.02 | 38 | 1023.6 |
| 20260831015533 | 63 | 325 | 4.0 | 5.0 | 0.00 | 0.02 | 0.02 | 40 | 1023.6 |
| 20260831015027 | 64 | 355 | 3.0 | 3.0 | 0.00 | 0.02 | 0.02 | 41 | 1023.7 |
| 20260831014522 | 65 | 2 | 7.0 | 8.0 | 0.00 | 0.02 | 0.02 | 37 | 1023.7 |
| 20260831014018 | 66 | 325 | 4.0 | 5.0 | 0.00 | 0.02 | 0.02 | 37 | 1023.6 |
| 20260831013514 | 66 | 328 | 4.0 | 5.0 | 0.00 | 0.02 | 0.02 | 39 | 1023.4 |
| 20260831013008 | 67 | 354 | 5.0 | 6.0 | 0.00 | 0.02 | 0.02 | 37 | 1023.3 |
| 20260831012503 | 68 | 310 | 5.0 | 7.0 | 0.00 | 0.02 | 0.02 | 37 | 1023.2 |
| 20260831012002 | 68 | 323 | 5.0 | 6.0 | 0.00 | 0.02 | 0.02 | 35 | 1023.7 |
| 20260831011457 | 68 | 341 | 3.0 | 3.0 | 0.00 | 0.02 | 0.02 | 35 | 1023.6 |
| 20260831010953 | 69 | 326 | 5.0 | 6.0 | 0.00 | 0.02 | 0.02 | 34 | 1023.6 |
| 20260831010453 | 69 | 331 | 5.0 | 7.0 | 0.00 | 0.02 | 0.02 | 34 | 1023.4 |
| 20260831005949 | 70 | 249 | 2.0 | 2.0 | 0.00 | 0.02 | 0.02 | 34 | 1023.7 |
| 20260831005444 | 71 | 295 | 3.0 | 3.0 | 0.00 | 0.02 | 0.02 | 33 | 1023.4 |
| 20260831004943 | 72 | 301 | 4.0 | 5.0 | 0.00 | 0.02 | 0.02 | 31 | 1023.4 |
| 20260831004440 | 71 | 317 | 3.0 | 3.0 | 0.00 | 0.02 | 0.02 | 33 | 1023.3 |
| 20260831003936 | 71 | 330 | 5.0 | 7.0 | 0.00 | 0.02 | 0.02 | 30 | 1023.4 |
| 20260831003431 | 72 | 307 | 3.0 | 3.0 | 0.00 | 0.02 | 0.02 | 31 | 1023.4 |
| 20260831002931 | 72 | 237 | 3.0 | 3.0 | 0.00 | 0.02 | 0.02 | 30 | 1023.3 |
| 20260831002430 | 73 | 263 | 2.0 | 3.0 | 0.00 | 0.02 | 0.02 | 30 | 1023.3 |
| 20260831001926 | 73 | 258 | 4.0 | 5.0 | 0.00 | 0.02 | 0.02 | 30 | 1023.2 |
| 20260831001421 | 73 | 263 | 3.0 | 3.0 | 0.00 | 0.02 | 0.02 | 29 | 1023.2 |
| 20260831000918 | 72 | 221 | 3.0 | 3.0 | 0.00 | 0.02 | 0.02 | 28 | 1023.2 |
| 20260831000414 | 72 | 222 | 6.0 | 8.0 | 0.00 | 0.02 | 0.02 | 29 | 1023.0 |
| 20260830235912 | 72 | 238 | 5.0 | 6.0 | 0.00 | 0.02 | 0.02 | 29 | 1023.1 |
| 20260830235407 | 72 | 228 | 4.0 | 6.0 | 0.00 | 0.02 | 0.02 | 29 | 1023.1 |
| 20260830234902 | 72 | 303 | 5.0 | 6.0 | 0.00 | 0.02 | 0.02 | 29 | 1023.1 |
| 20260830234357 | 72 | 330 | 5.0 | 6.0 | 0.00 | 0.02 | 0.02 | 30 | 1023.1 |
| 20260830233854 | 73 | 341 | 4.0 | 6.0 | 0.00 | 0.02 | 0.02 | 29 | 1023.3 |
| 20260830233348 | 72 | 308 | 5.0 | 6.0 | 0.00 | 0.02 | 0.02 | 31 | 1023.1 |
| 20260830232844 | 72 | 324 | 5.0 | 6.0 | 0.00 | 0.02 | 0.02 | 30 | 1023.1 |
| 20260830232339 | 72 | 285 | 8.0 | 10.0 | 0.00 | 0.02 | 0.02 | 31 | 1023.2 |
| 20260830231836 | 73 | 308 | 3.0 | 3.0 | 0.00 | 0.02 | 0.02 | 32 | 1022.9 |
| 20260830231331 | 72 | 270 | 4.0 | 5.0 | 0.00 | 0.02 | 0.02 | 31 | 1023.3 |
| 20260830230830 | 72 | 312 | 4.0 | 6.0 | 0.00 | 0.02 | 0.02 | 32 | 1023.2 |
| 20260830230326 | 72 | 270 | 7.0 | 8.0 | 0.00 | 0.02 | 0.02 | 31 | 1023.3 |
| 20260830225825 | 72 | 311 | 7.0 | 8.0 | 0.00 | 0.02 | 0.02 | 31 | 1023.0 |
| 20260830225320 | 72 | 281 | 7.0 | 8.0 | 0.00 | 0.02 | 0.02 | 31 | 1023.1 |
| 20260830224815 | 73 | 276 | 2.0 | 2.0 | 0.00 | 0.02 | 0.02 | 31 | 1023.3 |
| 20260830224309 | 73 | 252 | 4.0 | 7.0 | 0.00 | 0.02 | 0.02 | 30 | 1023.2 |
| 20260830223806 | 73 | 281 | 3.0 | 3.0 | 0.00 | 0.02 | 0.02 | 31 | 1023.6 |
| 20260830223302 | 72 | 321 | 4.0 | 5.0 | 0.00 | 0.02 | 0.02 | 32 | 1023.2 |
| 20260830222755 | 71 | 286 | 7.0 | 9.0 | 0.00 | 0.02 | 0.02 | 31 | 1023.2 |
| 20260830222251 | 72 | 294 | 7.0 | 9.0 | 0.00 | 0.02 | 0.02 | 33 | 1023.3 |
| 20260830221746 | 73 | 275 | 4.0 | 5.0 | 0.00 | 0.02 | 0.02 | 32 | 1023.1 |
| 20260830221244 | 73 | 306 | 7.0 | 10.0 | 0.00 | 0.02 | 0.02 | 34 | 1023.2 |
| 20260830220743 | 73 | 299 | 7.0 | 7.0 | 0.00 | 0.02 | 0.02 | 31 | 1023.4 |
| 20260830220243 | 73 | 270 | 5.0 | 7.0 | 0.00 | 0.02 | 0.02 | 31 | 1023.2 |
| 20260830215741 | 74 | 301 | 3.0 | 5.0 | 0.00 | 0.02 | 0.02 | 34 | 1023.2 |
| 20260830215236 | 72 | 201 | 2.0 | 3.0 | 0.00 | 0.02 | 0.02 | 29 | 1023.3 |
| 20260830214731 | 74 | 177 | 4.0 | 5.0 | 0.00 | 0.02 | 0.02 | 32 | 1023.4 |
| 20260830214231 | 70 | 196 | 0.0 | 0.0 | 0.00 | 0.02 | 0.02 | 36 | 1023.3 |
| 20260830213730 | 70 | 212 | 3.0 | 5.0 | 0.00 | 0.02 | 0.02 | 33 | 1023.6 |
| 20260830213226 | 72 | 256 | 1.0 | 1.0 | 0.00 | 0.02 | 0.02 | 33 | 1023.4 |
| 20260830212722 | 71 | 176 | 4.0 | 5.0 | 0.00 | 0.02 | 0.02 | 34 | 1023.6 |
| 20260830212217 | 71 | 149 | 4.0 | 5.0 | 0.00 | 0.02 | 0.02 | 37 | 1023.7 |
| 20260830211712 | 72 | 223 | 3.0 | 3.0 | 0.00 | 0.02 | 0.02 | 34 | 1023.7 |
| 20260830211210 | 72 | 210 | 1.0 | 2.0 | 0.00 | 0.02 | 0.02 | 33 | 1023.7 |
| 20260830210707 | 72 | 218 | 0.0 | 1.0 | 0.00 | 0.02 | 0.02 | 34 | 1023.7 |
| 20260830210206 | 71 | 231 | 0.0 | 0.0 | 0.00 | 0.02 | 0.02 | 35 | 1023.4 |
| 20260830205703 | 70 | 330 | 3.0 | 3.0 | 0.00 | 0.02 | 0.02 | 35 | 1023.7 |
| 20260830205158 | 71 | 327 | 3.0 | 3.0 | 0.00 | 0.02 | 0.02 | 36 | 1023.6 |
| 20260830204658 | 71 | 172 | 3.0 | 3.0 | 0.00 | 0.02 | 0.02 | 34 | 1023.8 |
| 20260830204157 | 70 | 229 | 0.0 | 1.0 | 0.00 | 0.02 | 0.02 | 38 | 1023.8 |
| 20260830203654 | 69 | 186 | 2.0 | 3.0 | 0.00 | 0.02 | 0.02 | 37 | 1023.7 |
| 20260830203149 | 68 | 244 | 1.0 | 1.0 | 0.00 | 0.02 | 0.02 | 38 | 1023.6 |
| 20260830202648 | 67 | 251 | 1.0 | 1.0 | 0.00 | 0.02 | 0.02 | 38 | 1023.9 |
| 20260830202143 | 69 | 318 | 5.0 | 6.0 | 0.00 | 0.02 | 0.02 | 38 | 1024.1 |
| 20260830201643 | 69 | 295 | 2.0 | 3.0 | 0.00 | 0.02 | 0.02 | 38 | 1024.0 |
| 20260830201139 | 68 | 301 | 1.0 | 2.0 | 0.00 | 0.02 | 0.02 | 38 | 1024.1 |
| 20260830200634 | 69 | 263 | 3.0 | 3.0 | 0.00 | 0.02 | 0.02 | 35 | 1023.9 |